Yeovilton, United Kingdom

11:18 PM BST on October 18, 2017 (GMT +0100)
Yeovil Radar Navy

Weather History for EGDY - September, 2012

Change the Weather History Date:

Tuesday, September 11, 2012

  Actual Average Record
Temperature  
Mean Temperature 56 °F -  
Max Temperature 61 °F 61 °F 78 °F (2000)
Min Temperature 51 °F 47 °F 42 °F (2002)
Degree Days  
Heating Degree Days 9    
Growing Degree Days 6 (Base 50)    
Moisture  
Dew Point 48 °F    
Average Humidity 73    
Maximum Humidity 94    
Minimum Humidity 47    
Precipitation  
Precipitation 0.00 in - - ()
Sea Level Pressure  
Sea Level Pressure 29.95 in    
Wind  
Wind Speed 11 mph ()    
Max Wind Speed 20 mph    
Max Gust Speed -    
Visibility 8.5 miles    
Events Rain    
Averages and records for this station are not official NWS values.
T = Trace of Precipitation, MM = Missing Value Source: Averaged Metar Reports

Daily Weather History Graph

Daily Weather History Graph

Search for Another Location

Airport or City:

Trip Planner

Search our weather history database for the weather conditions in past years. The results will help you decide how hot, cold, wet, or windy it might be!

Date:

Astronomy

Sep. 11, 2012 Rise Set
Actual Time 6:39 AM BST 7:33 PM BST
Civil Twilight 6:06 AM BST 8:06 PM BST
Nautical Twilight 5:26 AM BST 8:46 PM BST
Astronomical Twilight 4:43 AM BST 9:29 PM BST
Moon 1:17 AM BST (9/11) 4:56 PM BST (9/11)
Length of Visible Light 13h 59m
Length of Day
12h 53m
Waning Crescent, 23% of the Moon is Illuminated
Sep 11
Waning Crescent
Sep 16
New
Sep 22
First Quarter
Sep 30
Full
Oct 8
Last Quarter

Hourly Weather History & Observations

Time (BST) Temp. Dew Point Humidity Pressure Visibility Wind Dir Wind Speed Gust Speed Precip Events Conditions
12:50 AM 61 °F 56 °F 78% 29.82 in 12 mi SW 13.8 mph - -   Partly Cloudy
12:50 AM 60.8 °F 55.4 °F 82% 29.80 in - SW 13.8 mph - N/A   Clear
1:50 AM 60.8 °F 55.4 °F 82% 29.80 in 6.2 mi WSW 9.2 mph - N/A   Mostly Cloudy
2:50 AM 59.0 °F 53.6 °F 82% 29.80 in 6.2 mi WSW 8.1 mph - N/A   Mostly Cloudy
3:50 AM 58 °F 53 °F 79% 29.85 in 2 mi WSW 8.1 mph - - Rain Light Rain
3:50 AM 57.2 °F 53.6 °F 88% 29.83 in 2.5 mi WSW 8.1 mph - N/A Rain Light Rain
4:50 AM 55.4 °F 53.6 °F 94% 29.83 in 6.2 mi West 9.2 mph - N/A   Scattered Clouds
5:50 AM 53.6 °F 51.8 °F 94% 29.86 in 6.2 mi WSW 8.1 mph - N/A   Partly Cloudy
6:50 AM 53 °F 50 °F 86% 29.89 in 16 mi WSW 8.1 mph - -   Partly Cloudy
6:50 AM 53.6 °F 50.0 °F 88% 29.89 in 6.2 mi WSW 8.1 mph - N/A   Partly Cloudy
7:50 AM 53.6 °F 50.0 °F 88% 29.89 in 6.2 mi West 9.2 mph - N/A   Partly Cloudy
8:50 AM 57.2 °F 50.0 °F 77% 29.92 in 6.2 mi West 11.5 mph - N/A   Partly Cloudy
9:50 AM 58 °F 50 °F 68% 29.96 in 19 mi West 13.8 mph - -   Scattered Clouds
9:50 AM 57.2 °F 50.0 °F 77% 29.95 in 6.2 mi West 13.8 mph - N/A   Scattered Clouds
10:50 AM 57.2 °F 44.6 °F 63% 29.98 in 6.2 mi WNW 19.6 mph - N/A   Scattered Clouds
11:50 AM 60.8 °F 46.4 °F 59% 29.98 in 6.2 mi WNW 18.4 mph - N/A   Scattered Clouds
12:50 PM 59 °F 46 °F 52% 30.00 in 19 mi WNW 16.1 mph - - Rain Light Rain Showers
12:50 PM 59.0 °F 46.4 °F 63% 29.98 in 6.2 mi WNW 16.1 mph - N/A   Scattered Clouds
1:50 PM 59.0 °F 46.4 °F 63% 30.01 in 6.2 mi WNW 18.4 mph - N/A   Scattered Clouds
2:50 PM 60.8 °F 46.4 °F 59% 30.01 in 6.2 mi WNW 19.6 mph - N/A   Scattered Clouds
3:50 PM 58 °F 43 °F 47% 30.03 in 19 mi WNW 17.3 mph - -   Scattered Clouds
3:50 PM 59.0 °F 42.8 °F 55% 30.01 in 6.2 mi WNW 17.3 mph - N/A   Mostly Cloudy
4:50 PM 57.2 °F 42.8 °F 59% 30.01 in 6.2 mi West 17.3 mph - N/A   Scattered Clouds
5:50 PM 57.2 °F 42.8 °F 59% 30.04 in 6.2 mi West 19.6 mph - N/A   Scattered Clouds
6:50 PM 55 °F 45 °F 59% 30.04 in 16 mi West 11.5 mph - -   Scattered Clouds
6:50 PM 55.4 °F 44.6 °F 67% 30.04 in 6.2 mi West 11.5 mph - N/A   Mostly Cloudy
7:50 PM 53.6 °F 44.6 °F 72% 30.04 in 6.2 mi West 8.1 mph - N/A   Mostly Cloudy
8:50 PM 53.6 °F 46.4 °F 77% 30.04 in 6.2 mi West 6.9 mph - N/A   Mostly Cloudy
9:50 PM 53 °F 47 °F 73% 30.06 in 16 mi WSW 6.9 mph - -   Partly Cloudy
9:50 PM 51.8 °F 46.4 °F 82% 30.06 in - WSW 6.9 mph - N/A   Clear
10:50 PM 53.6 °F 46.4 °F 77% 30.06 in 6.2 mi WSW 4.6 mph - N/A   Mostly Cloudy
11:50 PM 51.8 °F 46.4 °F 82% 30.04 in - WSW 5.8 mph - N/A   Clear